YAOGAN 23 (40305 NORAD) Tracking and Keplerian Element Data

This shows tracking and keplerian element data for the satellite.

Feedback or suggestion? Click here.




ElementValue
Catalog40305
NameYAOGAN 23
Epoch Orbit29800
Epoch Day92.15589669
Epoch Year2020
RAAN32.1363
Inclination97.5194
Eccentricity0.0002681
Argument of Perigee64.2
Mean Anonmoly49.9747
Mean Motion15.18074544
Decay Rate6.85E-06
L11 40305U 14071A 20092.15589669 .00000685 00000-0 36957-4 0 9990
L22 40305 97.5194 32.1363 0002681 64.2000 49.9747 15.18074544298004

Live tracking and technical data element details for YAOGAN 23 (NORAD 40305). YAOGAN 23 can be tracked NOW for your location showing map with azimuth and elevation plus other details from your city location.

Track the satellite on the map from your city or location and see movement details for azimuth, elevation, latitude, longitude, range, height, and movement on the map or in text.







IsCatalogInMostPopularTable: catalog: 40305, numindb: 339
Update: records affected: 1



GetName: 40305 YAOGAN 23

Hit Count: updated at: Fri, 03 Apr 2020 06:47:42 GMT